La Grand Randonnée Céleste 7/06/2014 - 159 Km
Place Nom Prenom Temps Km/h Place. Cat. Cat.
1 BERTON GUY 142 22:15:16 7,1 1 V1
2 VANDERMEULEN SÉVERINE 7 22:26:34 7,1 1 D
3 VAN HEUSDEN OLIVIER 8 23:10:54 6,9 2 V1
4 WANSART NICOLAS 32 23:31:27 6,8 1 S
5 BROSSARD ERIC 1 24:16:25 6,6 3 V1
6 TOAMAIN BRUNO 17 25:09:54 6,3 2 S
7 ERNST CHRISTOPHE 14 25:56:41 6,1 4 V1
8 WISLET CHRISTOPHE 159 25:56:41 6,1 5 V1
9 CHERTON PATRICK 128 26:03:03 6,1 6 V1
10 VIS PRISCA 157 26:09:03 6,1 1 A2
11 SCAILLET VINCENT 133 26:14:40 6,1 7 V1
12 STEVENS ALAIN 45 26:40:36 6,0 8 V1
13 KUYPERS ERWIN 19 26:41:31 6,0 3 S
14 GREGOIRE ETIENNE 42 26:58:47 5,9 9 V1
15 DUFOUR FLORIAN 139 27:56:48 5,7 4 S
16 MAES LUC 23 28:04:28 5,7 1 V2
17 DELVENNE JEAN-FRANÇOIS 179 28:04:28 5,7 10 V1
18 BOGAERT JOHAN 130 28:11:47 5,6 2 V2
19 HUENS ETIENNE 25 28:37:35 5,6 11 V1
20 ANTUNES AVELINO 177 28:53:30 5,5 3 V2
21 DELIGNY DANIEL 160 28:53:30 5,5 1 V3
22 VALLET DOMINIQUE 88 28:56:56 5,5 12 V1
23 KURZ XAVIER 140 29:13:17 5,4 4 V2
24 DECOEUR CHRISTIANE 101 29:18:39 5,4 2 A2
25 BERTRAND VALERY 126 29:32:19 5,4 5 S
26 BIERMANS PHILIPPE 24 29:34:44 5,4 6 S
27 VLASSAK WILBERT 62 30:19:47 5,2 7 S
28 VERMEULEN ERNST JAN 156 30:19:47 5,2 5 V2
29 VERMEULEN RENSKE 155 30:19:47 5,2 3 A2
30 BUFFET PATRICK 163 30:27:18 5,2 6 V2
31 ROBERT RUDY 40 30:27:18 5,2 13 V1
32 EUBELEN FRANCIS 49 30:29:29 5,2 7 V2
33 DAVID PATRICK 149 30:29:29 5,2 8 V2
34 VERCAIGNE BOB 158 31:52:53 5,0 14 V1
35 DEWIT GEERT 124 31:54:44 5,0 15 V1
36 REGNIER DIDIER 164 32:37:21 4,9 16 V1
37 VINCENT DOMINIQUE 161 32:57:46 4,8 1 A3
38 RENSON LUC 93 32:57:46 4,8 17 V1
39 DAWIRS MICHEL 1512 32:57:46 4,8 9 V2